Cherokee, North Carolina, United States (28719)
Lat: 35.47N, Lon: 83.31W
Wx Zone: NCZ051
Local Info
Past Weather Observations for Today

NOTE: This archive is for the closest National Weather Service station to Cherokee. Information may differ from the station used for current weather conditions.

Click here for Long-term Archive

Time Weather Temperature Dewpoint Humidity Pressure Winds Precip Visibility
09:10
Mostly Cloudy
Light Rain
43°F / 6°C 39°F / 4°C 87% 29.74 in
(1007 mb)
NW 6.9 mph
(NW 11 kph)
0.01 in
(0.25 mm)
3SM
08:50
Overcast
48°F / 9°C 36°F / 2°C 62% 29.74 in
(1007 mb)
NNW 6.9 mph
(NNW 11 kph)
- 10SM
08:30
Mostly Cloudy
48°F / 9°C 37°F / 3°C 66% 29.74 in
(1007 mb)
NW 8.1 mph
(NW 13 kph)
- 10SM
08:10
Mostly Cloudy
48°F / 9°C 37°F / 3°C 66% 29.74 in
(1007 mb)
NNW 8.1 mph
(NNW 13 kph)
- 10SM
07:50
Overcast
48°F / 9°C 37°F / 3°C 66% 29.74 in
(1007 mb)
WNW 3.5 mph
(WNW 6 kph)
- 10SM
07:30
Mostly Cloudy
48°F / 9°C 39°F / 4°C 71% 29.71 in
(1006 mb)
NW 8.1 mph
(NW 13 kph)
- 10SM
07:10
Clear
46°F / 8°C 39°F / 4°C 76% 29.71 in
(1006 mb)
NW 5.8 mph
(NW 9 kph)
- 10SM
06:50
Mostly Cloudy
46°F / 8°C 39°F / 4°C 76% 29.71 in
(1006 mb)
NW 5.8 mph
(NW 9 kph)
- 10SM
06:30
Overcast
45°F / 7°C 39°F / 4°C 81% 29.71 in
(1006 mb)
NNW 4.6 mph
(NNW 7 kph)
- 10SM
06:10
Mostly Cloudy
45°F / 7°C 39°F / 4°C 81% 29.71 in
(1006 mb)
Calm - 10SM
05:50
Partly Cloudy
45°F / 7°C 39°F / 4°C 81% 29.71 in
(1006 mb)
NW 4.6 mph
(NW 7 kph)
- 10SM
05:30
Partly Cloudy
45°F / 7°C 39°F / 4°C 81% 29.71 in
(1006 mb)
NNW 6.9 mph
(NNW 11 kph)
- 10SM
05:10
Mostly Cloudy
Drizzle
45°F / 7°C 39°F / 4°C 81% 29.68 in
(1005 mb)
NW 5.8 mph
(NW 9 kph)
- 7SM
04:50
Mostly Cloudy
45°F / 7°C 39°F / 4°C 81% 29.68 in
(1005 mb)
NW 6.9 mph
(NW 11 kph)
- 10SM
04:30
Mostly Cloudy
45°F / 7°C 39°F / 4°C 81% 29.68 in
(1005 mb)
NNW 5.8 mph
(NNW 9 kph)
- 10SM
04:10
Overcast
46°F / 8°C 39°F / 4°C 76% 29.68 in
(1005 mb)
NNW 5.8 mph
(NNW 9 kph)
- 10SM
03:50
Overcast
45°F / 7°C 41°F / 5°C 87% 29.68 in
(1005 mb)
NW 4.6 mph
(NW 7 kph)
0.01 in
(0.25 mm)
10SM
03:30
Overcast
46°F / 8°C 39°F / 4°C 76% 29.68 in
(1005 mb)
NW 5.8 mph
(NW 9 kph)
0.01 in
(0.25 mm)
10SM
03:10
Overcast
Light Rain
46°F / 8°C 41°F / 5°C 82% 29.68 in
(1005 mb)
NW 6.9 mph
(NW 11 kph)
- 10SM
02:50
Mostly Cloudy
Light Rain
45°F / 7°C 41°F / 5°C 87% 29.68 in
(1005 mb)
NNW 4.6 mph
(NNW 7 kph)
- 7SM
02:30
Partly Cloudy
41°F / 5°C 39°F / 4°C 93% 29.68 in
(1005 mb)
Calm - 10SM
02:10
Partly Cloudy
43°F / 6°C 39°F / 4°C 87% 29.68 in
(1005 mb)
Calm - 10SM
01:50
Partly Cloudy
46°F / 8°C 41°F / 5°C 82% 29.71 in
(1006 mb)
NW 4.6 mph
(NW 7 kph)
- 10SM
01:30
Partly Cloudy
43°F / 6°C 41°F / 5°C 93% 29.71 in
(1006 mb)
NNW 3.5 mph
(NNW 6 kph)
- 10SM
01:10
Clear
43°F / 6°C 41°F / 5°C 93% 29.71 in
(1006 mb)
Calm - 10SM
00:50
Clear
43°F / 6°C 41°F / 5°C 93% 29.74 in
(1007 mb)
Calm - 10SM
00:30
Clear
43°F / 6°C 41°F / 5°C 93% 29.74 in
(1007 mb)
Calm - 10SM
00:10
Clear
43°F / 6°C 41°F / 5°C 93% 29.74 in
(1007 mb)
Calm - 10SM
Time Weather Temperature Dewpoint Humidity Pressure Winds Precip Visibility


Weather for websites

WeatherForYou.com, LLC is not responsible for any damages or problems caused by this service. Current weather conditions are obtained from the closest station including government and personal stations which may have varying degrees of accuracy. Weather forecasts are derived from the NOAA NDFD. Like all things, this site belongs to Jesus Christ... He just trusts us to maintain it. If you have any questions or comments email webmaster@weatherforyou.com

Copyright © 2016, WeatherForYou.com LLC. All rights reserved.